Saint-Nazaire, France

12:44 AM CET on February 10, 2016 (GMT +0100)
Montoir

Weather History for LFRZ - October, 2012

Change the Weather History Date:

Wednesday, October 10, 2012

  Actual Average Record
Temperature  
Mean Temperature 65 °F -  
Max Temperature 68 °F 58 °F 75 °F (2006)
Min Temperature 62 °F 47 °F 39 °F (2008)
Growing Degree Days 15 (Base 50)    
Moisture  
Dew Point 62 °F    
Average Humidity 94    
Maximum Humidity 100    
Minimum Humidity 73    
Precipitation  
Precipitation 0.00 in - - ()
Sea Level Pressure  
Sea Level Pressure 29.92 in    
Wind  
Wind Speed 7 mph ()    
Max Wind Speed 14 mph    
Max Gust Speed -    
Visibility 6.1 miles    
Events Rain    
Averages and records for this station are not official NWS values.
T = Trace of Precipitation, MM = Missing Value Source: Averaged Metar Reports

Daily Weather History Graph

Daily Weather History Graph

Search for Another Location

Airport or City:

Trip Planner

Search our weather history database for the weather conditions in past years. The results will help you decide how hot, cold, wet, or windy it might be!

Date:

Astronomy

Oct. 10, 2012 Rise Set
Actual Time 8:20 AM CEST 7:29 PM CEST
Civil Twilight 7:49 AM CEST 8:00 PM CEST
Nautical Twilight 7:14 AM CEST 8:35 PM CEST
Astronomical Twilight 6:38 AM CEST 9:11 PM CEST
Moon 2:20 AM CEST (10/10) 4:42 PM CEST (10/10)
Length of Visible Light 12h 10m
Length of Day
11h 09m
Waning Crescent, 30% of the Moon is Illuminated
Oct 10
Waning Crescent
Oct 15
New
Oct 22
First Quarter
Oct 29
Full
Nov 7
Last Quarter

Hourly Weather History & Observations

Time (CEST) Temp. Dew Point Humidity Pressure Visibility Wind Dir Wind Speed Gust Speed Precip Events Conditions
12:00 AM 62.6 °F 62.6 °F 100% 29.98 in 6.2 mi West 10.4 mph - N/A   Overcast
12:30 AM 62.6 °F 62.6 °F 100% 29.95 in 6.2 mi WSW 9.2 mph - N/A   Overcast
1:00 AM 62.6 °F 62.6 °F 100% 29.95 in 6.2 mi West 6.9 mph - N/A   Overcast
1:30 AM 62.6 °F 62.6 °F 100% 29.95 in 6.2 mi WSW 10.4 mph - N/A   Overcast
2:00 AM 62.6 °F 60.8 °F 94% 29.95 in 6.2 mi West 9.2 mph - N/A   Overcast
2:30 AM 62.6 °F 62.6 °F 100% 29.95 in 6.2 mi West 6.9 mph - N/A   Overcast
3:00 AM 62.6 °F 62.6 °F 100% 29.95 in 3.1 mi WSW 5.8 mph - N/A   Mostly Cloudy
3:30 AM 62.6 °F 62.6 °F 100% 29.95 in 6.2 mi WSW 6.9 mph - N/A   Overcast
4:00 AM 62.6 °F 62.6 °F 100% 29.95 in 6.2 mi WSW 6.9 mph - N/A   Overcast
4:30 AM 62.6 °F 62.6 °F 100% 29.95 in 6.2 mi West 5.8 mph - N/A   Overcast
5:00 AM 62.6 °F 62.6 °F 100% 29.95 in 6.2 mi West 4.6 mph - N/A   Overcast
5:30 AM 62.6 °F 62.6 °F 100% 29.92 in 5.0 mi West 8.1 mph - N/A   Overcast
6:00 AM 62.6 °F 62.6 °F 100% 29.92 in 6.2 mi West 5.8 mph - N/A   Overcast
6:30 AM 62.6 °F 62.6 °F 100% 29.92 in 6.2 mi West 5.8 mph - N/A   Overcast
7:00 AM 62.6 °F 62.6 °F 100% 29.92 in 6.2 mi West 4.6 mph - N/A Rain Light Rain
7:30 AM 62.6 °F 62.6 °F 100% 29.92 in 6.2 mi WSW 2.3 mph - N/A   Overcast
8:00 AM 62.6 °F 62.6 °F 100% 29.92 in 3.7 mi WSW 3.5 mph - N/A   Overcast
8:30 AM 62.6 °F 62.6 °F 100% 29.92 in 6.2 mi SW 3.5 mph - N/A   Overcast
9:00 AM 62.6 °F 62.6 °F 100% 29.95 in 6.2 mi WSW 4.6 mph - N/A   Overcast
9:30 AM 62.6 °F 62.6 °F 100% 29.95 in 6.2 mi SW 4.6 mph - N/A   Overcast
10:00 AM 64.4 °F 62.6 °F 94% 29.95 in 6.2 mi WSW 4.6 mph - N/A   Overcast
10:30 AM 64.4 °F 62.6 °F 94% 29.95 in 6.2 mi WSW 4.6 mph - N/A   Overcast
11:00 AM 64.4 °F 62.6 °F 94% 29.95 in 6.2 mi WSW 4.6 mph - N/A   Overcast
11:30 AM 64.4 °F 62.6 °F 94% 29.95 in 6.2 mi WSW 5.8 mph - N/A   Overcast
12:00 PM 64.4 °F 62.6 °F 94% 29.95 in 6.2 mi West 9.2 mph - N/A   Overcast
12:30 PM 66.2 °F 62.6 °F 88% 29.95 in 6.2 mi West 10.4 mph - N/A   Mostly Cloudy
1:00 PM 68.0 °F 60.8 °F 78% 29.95 in 6.2 mi West 13.8 mph - N/A   Mostly Cloudy
1:30 PM 68.0 °F 59.0 °F 73% 29.92 in 6.2 mi West 12.7 mph - N/A   Mostly Cloudy
2:00 PM 68.0 °F 59.0 °F 73% 29.92 in 6.2 mi West 11.5 mph - N/A   Mostly Cloudy
2:30 PM 68.0 °F 59.0 °F 73% 29.92 in 6.2 mi West 9.2 mph - N/A   Overcast
3:00 PM 66.2 °F 59.0 °F 78% 29.92 in 6.2 mi WSW 13.8 mph - N/A   Mostly Cloudy
3:30 PM 66.2 °F 60.8 °F 83% 29.92 in 6.2 mi WSW 8.1 mph - N/A   Overcast
4:00 PM 66.2 °F 60.8 °F 83% 29.92 in 6.2 mi SW 9.2 mph - N/A   Overcast
4:30 PM 66.2 °F 60.8 °F 83% 29.89 in 6.2 mi SSW 10.4 mph - N/A   Overcast
5:00 PM 64.4 °F 60.8 °F 88% 29.89 in 6.2 mi SSW 10.4 mph - N/A   Overcast
5:30 PM 62.6 °F 60.8 °F 94% 29.89 in 6.2 mi SSW 8.1 mph - N/A   Overcast
6:00 PM 62.6 °F 60.8 °F 94% 29.89 in 6.2 mi SSW 8.1 mph - N/A   Mostly Cloudy
6:30 PM 62.6 °F 60.8 °F 94% 29.89 in 6.2 mi SSW 4.6 mph - N/A   Overcast
7:00 PM 62.6 °F 60.8 °F 94% 29.89 in 6.2 mi SSW 4.6 mph - N/A   Overcast
7:30 PM 62.6 °F 60.8 °F 94% 29.89 in 6.2 mi South 4.6 mph - N/A   Overcast
8:00 PM 62.6 °F 60.8 °F 94% 29.89 in 6.2 mi South 3.5 mph - N/A   Mostly Cloudy
8:30 PM 62.6 °F 60.8 °F 94% 29.86 in 6.2 mi SSE 3.5 mph - N/A   Overcast
9:00 PM 62.6 °F 60.8 °F 94% 29.86 in 6.2 mi SSE 4.6 mph - N/A   Overcast
9:30 PM 62.6 °F 62.6 °F 100% 29.86 in 6.2 mi SSE 4.6 mph - N/A   Overcast
10:00 PM 62.6 °F 62.6 °F 100% 29.86 in 6.2 mi SSE 5.8 mph - N/A   Mostly Cloudy
10:30 PM 62.6 °F 62.6 °F 100% 29.86 in 6.2 mi SSE 6.9 mph - N/A Rain Light Rain
11:00 PM 62.6 °F 62.6 °F 100% 29.86 in 6.2 mi SSE 4.6 mph - N/A   Overcast
11:30 PM 62.6 °F 62.6 °F 100% 29.83 in 6.2 mi SSE 6.9 mph - N/A   Overcast